| time (UTC) | temp F | wind direction | speed MPH | gust MPH | rain 1hr in | rain 24hr in | rain mn in | humidity % | barometer mb |
| 20260901104124 | 64 | 105 | 0.0 | 0.0 | 0.00 | 0.00 | 0.00 | 95 | 1016.4 |
| 20260901103104 | 64 | 105 | 0.0 | 0.0 | 0.00 | 0.00 | 0.00 | 95 | 1016.2 |
| 20260901102103 | 64 | 105 | 0.0 | 0.0 | 0.00 | 0.00 | 0.00 | 94 | 1016.1 |
| 20260901101103 | 64 | 105 | 0.0 | 0.0 | 0.00 | 0.00 | 0.00 | 95 | 1016.2 |
| 20260901100125 | 64 | 105 | 0.0 | 0.0 | 0.00 | 0.00 | 0.00 | 94 | 1016.1 |
| 20260901095103 | 64 | 105 | 0.0 | 0.0 | 0.00 | 0.00 | 0.00 | 94 | 1016.1 |
| 20260901094146 | 64 | 105 | 0.0 | 1.0 | 0.00 | 0.00 | 0.00 | 94 | 1016.0 |
| 20260901093103 | 64 | 105 | 0.0 | 0.0 | 0.00 | 0.00 | 0.00 | 94 | 1016.1 |
| 20260901092103 | 64 | 105 | 0.0 | 1.0 | 0.00 | 0.00 | 0.00 | 94 | 1016.1 |
| 20260901091104 | 64 | 105 | 0.0 | 0.0 | 0.00 | 0.00 | 0.00 | 94 | 1016.2 |
| 20260901085104 | 64 | 59 | 1.0 | 1.0 | 0.00 | 0.00 | 0.00 | 94 | 1016.1 |
| 20260901084103 | 64 | 59 | 0.0 | 0.0 | 0.00 | 0.00 | 0.00 | 94 | 1016.3 |
| 20260901083104 | 64 | 59 | 0.0 | 1.0 | 0.00 | 0.00 | 0.00 | 93 | 1016.6 |
| 20260901082103 | 65 | 59 | 0.0 | 1.0 | 0.00 | 0.00 | 0.00 | 93 | 1016.9 |
| 20260901081104 | 65 | 59 | 1.0 | 2.0 | 0.00 | 0.00 | 0.00 | 94 | 1017.1 |
| 20260901075104 | 64 | 150 | 1.0 | 2.0 | 0.00 | 0.00 | 0.00 | 93 | 1016.8 |
| 20260901074103 | 64 | 146 | 0.0 | 1.0 | 0.00 | 0.00 | 0.00 | 93 | 1016.8 |
| 20260901073104 | 65 | 146 | 0.0 | 0.0 | 0.00 | 0.00 | 0.00 | 93 | 1016.9 |
| 20260901072124 | 65 | 146 | 0.0 | 1.0 | 0.00 | 0.00 | 0.00 | 93 | 1016.8 |
| 20260901071103 | 65 | 146 | 0.0 | 2.0 | 0.00 | 0.00 | 0.00 | 92 | 1016.8 |
| 20260901070103 | 65 | 146 | 1.0 | 4.0 | 0.00 | 0.00 | 0.00 | 92 | 1016.8 |
| 20260901065103 | 65 | 150 | 1.0 | 3.0 | 0.00 | 0.00 | 0.00 | 92 | 1016.9 |
| 20260901064103 | 65 | 153 | 1.0 | 3.0 | 0.00 | 0.00 | 0.00 | 92 | 1017.0 |
| 20260901063103 | 65 | 239 | 0.0 | 1.0 | 0.00 | 0.00 | 0.00 | 92 | 1017.4 |
| 20260901062104 | 65 | 225 | 1.0 | 2.0 | 0.00 | 0.00 | 0.00 | 92 | 1017.3 |
| 20260901061103 | 65 | 201 | 0.0 | 2.0 | 0.00 | 0.00 | 0.00 | 92 | 1017.2 |
| 20260901060104 | 65 | 210 | 0.0 | 2.0 | 0.00 | 0.00 | 0.00 | 91 | 1017.1 |
| 20260901055103 | 65 | 171 | 0.0 | 0.0 | 0.00 | 0.00 | 0.00 | 91 | 1017.1 |
| 20260901054104 | 65 | 171 | 0.0 | 1.0 | 0.00 | 0.00 | 0.00 | 90 | 1017.3 |
| 20260901053103 | 65 | 171 | 1.0 | 1.0 | 0.00 | 0.00 | 0.00 | 90 | 1017.4 |
| 20260901052124 | 65 | 171 | 0.0 | 2.0 | 0.00 | 0.00 | 0.00 | 90 | 1017.3 |
| 20260901051125 | 65 | 199 | 0.0 | 1.0 | 0.00 | 0.01 | 0.00 | 89 | 1017.4 |
| 20260901050124 | 65 | 199 | 0.0 | 2.0 | 0.00 | 0.01 | 0.00 | 89 | 1017.4 |
| 20260901045103 | 65 | 168 | 1.0 | 4.0 | 0.00 | 0.01 | 0.00 | 88 | 1017.4 |
| 20260901044103 | 66 | 186 | 3.0 | 5.0 | 0.00 | 0.01 | 0.00 | 88 | 1017.4 |
| 20260901043103 | 66 | 216 | 2.0 | 5.0 | 0.00 | 0.01 | 0.00 | 88 | 1017.5 |
| 20260901042104 | 65 | 209 | 2.0 | 4.0 | 0.00 | 0.01 | 0.00 | 88 | 1017.7 |
| 20260901041103 | 65 | 195 | 1.0 | 3.0 | 0.00 | 0.01 | 0.00 | 89 | 1017.8 |
| 20260901040104 | 65 | 221 | 0.0 | 4.0 | 0.00 | 0.01 | 0.01 | 89 | 1017.8 |
| 20260901035103 | 65 | 223 | 1.0 | 3.0 | 0.00 | 0.01 | 0.01 | 89 | 1017.8 |
| 20260901034104 | 65 | 188 | 2.0 | 3.0 | 0.00 | 0.01 | 0.01 | 88 | 1017.7 |
| 20260901033103 | 65 | 185 | 1.0 | 3.0 | 0.00 | 0.01 | 0.01 | 88 | 1017.8 |
| 20260901032124 | 66 | 205 | 1.0 | 2.0 | 0.00 | 0.02 | 0.01 | 86 | 1017.7 |
| 20260901031103 | 66 | 210 | 1.0 | 4.0 | 0.00 | 0.03 | 0.01 | 85 | 1017.8 |
| 20260901030103 | 66 | 186 | 2.0 | 3.0 | 0.00 | 0.03 | 0.01 | 84 | 1017.7 |
| 20260901025103 | 66 | 199 | 3.0 | 5.0 | 0.00 | 0.03 | 0.01 | 83 | 1017.7 |
| 20260901024103 | 66 | 189 | 3.0 | 6.0 | 0.00 | 0.03 | 0.01 | 83 | 1017.7 |
| 20260901023103 | 66 | 184 | 4.0 | 7.0 | 0.00 | 0.03 | 0.01 | 83 | 1017.8 |
| 20260901022103 | 66 | 149 | 2.0 | 4.0 | 0.00 | 0.04 | 0.01 | 84 | 1017.8 |
| 20260901021104 | 66 | 173 | 2.0 | 5.0 | 0.00 | 0.05 | 0.01 | 81 | 1018.1 |
| 20260901015125 | 67 | 208 | 3.0 | 5.0 | 0.00 | 0.05 | 0.01 | 81 | 1018.2 |
| 20260901014103 | 67 | 191 | 4.0 | 6.0 | 0.00 | 0.05 | 0.01 | 82 | 1018.0 |
| 20260901013104 | 67 | 192 | 2.0 | 5.0 | 0.00 | 0.05 | 0.01 | 82 | 1018.0 |
| 20260901012103 | 67 | 190 | 3.0 | 7.0 | 0.00 | 0.05 | 0.01 | 82 | 1017.9 |
| 20260901011104 | 67 | 203 | 3.0 | 5.0 | 0.00 | 0.05 | 0.01 | 83 | 1018.0 |
| 20260901005104 | 67 | 213 | 3.0 | 6.0 | 0.00 | 0.05 | 0.01 | 83 | 1018.0 |
| 20260901004103 | 67 | 208 | 2.0 | 6.0 | 0.00 | 0.05 | 0.01 | 82 | 1018.0 |
| 20260901003103 | 67 | 188 | 3.0 | 7.0 | 0.00 | 0.05 | 0.01 | 82 | 1017.8 |
| 20260901002104 | 68 | 204 | 3.0 | 9.0 | 0.00 | 0.05 | 0.01 | 82 | 1018.0 |
| 20260901001103 | 68 | 205 | 3.0 | 8.0 | 0.00 | 0.05 | 0.01 | 82 | 1018.0 |
| 20260901000104 | 68 | 210 | 6.0 | 9.0 | 0.00 | 0.05 | 0.01 | 82 | 1018.0 |
| 20260831235103 | 68 | 221 | 4.0 | 10.0 | 0.00 | 0.05 | 0.01 | 83 | 1018.1 |
| 20260831234104 | 69 | 224 | 4.0 | 9.0 | 0.00 | 0.05 | 0.01 | 83 | 1018.0 |
| 20260831233103 | 69 | 228 | 4.0 | 7.0 | 0.00 | 0.05 | 0.01 | 83 | 1018.0 |
| 20260831232103 | 69 | 213 | 2.0 | 6.0 | 0.00 | 0.05 | 0.01 | 82 | 1018.0 |
| 20260831231125 | 69 | 188 | 3.0 | 5.0 | 0.00 | 0.05 | 0.01 | 81 | 1017.8 |
| 20260831225104 | 70 | 204 | 4.0 | 8.0 | 0.00 | 0.05 | 0.01 | 79 | 1017.9 |
| 20260831224103 | 70 | 194 | 4.0 | 9.0 | 0.00 | 0.05 | 0.01 | 79 | 1018.0 |
| 20260831223104 | 71 | 238 | 6.0 | 11.0 | 0.00 | 0.05 | 0.01 | 77 | 1018.0 |
| 20260831222103 | 72 | 214 | 5.0 | 9.0 | 0.00 | 0.05 | 0.01 | 76 | 1018.0 |
| 20260831221104 | 72 | 224 | 5.0 | 10.0 | 0.00 | 0.05 | 0.01 | 75 | 1018.0 |
| 20260831220103 | 72 | 228 | 6.0 | 11.0 | 0.00 | 0.05 | 0.01 | 74 | 1018.0 |
| 20260831215125 | 73 | 198 | 5.0 | 10.0 | 0.00 | 0.05 | 0.01 | 71 | 1017.9 |
| 20260831214103 | 73 | 188 | 4.0 | 11.0 | 0.00 | 0.05 | 0.01 | 69 | 1018.0 |
| 20260831213103 | 74 | 193 | 6.0 | 10.0 | 0.00 | 0.05 | 0.01 | 68 | 1018.0 |
| 20260831212103 | 74 | 211 | 5.0 | 10.0 | 0.00 | 0.05 | 0.01 | 69 | 1017.8 |
| 20260831211103 | 75 | 201 | 5.0 | 10.0 | 0.00 | 0.05 | 0.01 | 69 | 1017.9 |
| 20260831210103 | 76 | 194 | 5.0 | 8.0 | 0.00 | 0.05 | 0.01 | 66 | 1017.9 |
| 20260831205103 | 76 | 189 | 5.0 | 10.0 | 0.00 | 0.05 | 0.01 | 64 | 1017.8 |
| 20260831204103 | 76 | 204 | 5.0 | 11.0 | 0.00 | 0.05 | 0.01 | 64 | 1017.8 |
| 20260831203103 | 77 | 189 | 6.0 | 9.0 | 0.00 | 0.05 | 0.01 | 60 | 1017.6 |
| 20260831202103 | 77 | 165 | 5.0 | 10.0 | 0.00 | 0.05 | 0.01 | 61 | 1017.6 |
| 20260831201103 | 77 | 189 | 4.0 | 6.0 | 0.00 | 0.05 | 0.01 | 59 | 1017.8 |
| 20260831195103 | 76 | 157 | 5.0 | 10.0 | 0.00 | 0.05 | 0.01 | 60 | 1017.8 |
| 20260831194103 | 77 | 176 | 6.0 | 9.0 | 0.00 | 0.05 | 0.01 | 59 | 1018.0 |
| 20260831193124 | 76 | 209 | 4.0 | 7.0 | 0.00 | 0.05 | 0.01 | 61 | 1018.2 |
| 20260831192103 | 76 | 143 | 4.0 | 8.0 | 0.00 | 0.05 | 0.01 | 60 | 1018.1 |
| 20260831191103 | 77 | 126 | 2.0 | 4.0 | 0.00 | 0.05 | 0.01 | 61 | 1018.0 |
| 20260831185103 | 78 | 151 | 4.0 | 6.0 | 0.00 | 0.05 | 0.01 | 54 | 1018.4 |
| 20260831184104 | 77 | 216 | 2.0 | 5.0 | 0.00 | 0.05 | 0.01 | 59 | 1018.5 |
| 20260831183103 | 77 | 349 | 1.0 | 4.0 | 0.00 | 0.05 | 0.01 | 57 | 1018.7 |
| 20260831182104 | 76 | 322 | 2.0 | 3.0 | 0.00 | 0.05 | 0.01 | 57 | 1018.5 |
| 20260831181103 | 76 | 251 | 1.0 | 5.0 | 0.00 | 0.05 | 0.01 | 55 | 1018.6 |
| 20260831180104 | 75 | 156 | 2.0 | 5.0 | 0.00 | 0.05 | 0.01 | 57 | 1018.7 |
| 20260831175103 | 75 | 94 | 4.0 | 7.0 | 0.00 | 0.05 | 0.01 | 58 | 1019.0 |
| 20260831174103 | 76 | 177 | 1.0 | 4.0 | 0.00 | 0.05 | 0.01 | 60 | 1019.0 |
| 20260831173103 | 76 | 17 | 3.0 | 8.0 | 0.00 | 0.05 | 0.01 | 57 | 1018.9 |
| 20260831172103 | 76 | 344 | 2.0 | 11.0 | 0.00 | 0.05 | 0.01 | 60 | 1018.8 |
| 20260831171104 | 76 | 139 | 2.0 | 7.0 | 0.00 | 0.05 | 0.01 | 57 | 1019.0 |
| 20260831165103 | 76 | 164 | 2.0 | 5.0 | 0.00 | 0.05 | 0.01 | 61 | 1019.2 |
| 20260831164103 | 76 | 36 | 2.0 | 6.0 | 0.00 | 0.05 | 0.01 | 58 | 1019.3 |
| 20260831163125 | 75 | 92 | 4.0 | 9.0 | 0.00 | 0.05 | 0.01 | 61 | 1019.4 |
| 20260831162124 | 76 | 136 | 3.0 | 10.0 | 0.00 | 0.05 | 0.01 | 62 | 1019.3 |
| 20260831161124 | 75 | 167 | 4.0 | 13.0 | 0.00 | 0.05 | 0.01 | 59 | 1019.4 |
| 20260831155103 | 75 | 5 | 6.0 | 9.0 | 0.00 | 0.05 | 0.01 | 60 | 1019.6 |
| 20260831154103 | 75 | 143 | 4.0 | 8.0 | 0.00 | 0.05 | 0.01 | 64 | 1019.5 |
| 20260831153124 | 73 | 198 | 3.0 | 10.0 | 0.00 | 0.05 | 0.01 | 63 | 1019.8 |
| 20260831152103 | 73 | 52 | 2.0 | 5.0 | 0.00 | 0.05 | 0.01 | 63 | 1019.8 |
| 20260831151103 | 74 | 46 | 4.0 | 10.0 | 0.00 | 0.05 | 0.01 | 59 | 1019.9 |
| 20260831150125 | 73 | 99 | 5.0 | 8.0 | 0.00 | 0.05 | 0.01 | 65 | 1019.7 |
| 20260831145104 | 72 | 134 | 3.0 | 9.0 | 0.00 | 0.05 | 0.01 | 67 | 1019.7 |
| 20260831144103 | 72 | 35 | 3.0 | 10.0 | 0.00 | 0.05 | 0.01 | 68 | 1019.6 |
| 20260831143104 | 72 | 68 | 1.0 | 8.0 | 0.00 | 0.05 | 0.01 | 72 | 1019.7 |
| 20260831142103 | 72 | 114 | 3.0 | 9.0 | 0.00 | 0.05 | 0.01 | 69 | 1019.8 |
| 20260831141103 | 71 | 100 | 3.0 | 9.0 | 0.00 | 0.05 | 0.01 | 70 | 1019.7 |
| 20260831140124 | 70 | 77 | 4.0 | 10.0 | 0.00 | 0.05 | 0.01 | 72 | 1019.6 |
| 20260831135104 | 70 | 31 | 4.0 | 9.0 | 0.00 | 0.05 | 0.01 | 72 | 1019.5 |
| 20260831134103 | 70 | 31 | 4.0 | 10.0 | 0.00 | 0.05 | 0.01 | 74 | 1019.4 |
| 20260831133125 | 70 | 93 | 5.0 | 12.0 | 0.00 | 0.05 | 0.01 | 74 | 1019.3 |
| 20260831132125 | 69 | 43 | 2.0 | 13.0 | 0.00 | 0.05 | 0.01 | 76 | 1019.3 |
| 20260831131104 | 69 | 33 | 3.0 | 9.0 | 0.00 | 0.05 | 0.01 | 82 | 1019.5 |
| 20260831130104 | 68 | 76 | 5.0 | 9.0 | 0.00 | 0.05 | 0.01 | 81 | 1019.5 |
| 20260831125125 | 68 | 52 | 5.0 | 12.0 | 0.00 | 0.05 | 0.01 | 79 | 1019.5 |
| 20260831124103 | 67 | 71 | 5.0 | 10.0 | 0.00 | 0.05 | 0.01 | 85 | 1019.5 |
| 20260831123104 | 66 | 76 | 6.0 | 11.0 | 0.00 | 0.05 | 0.01 | 88 | 1019.4 |
| 20260831122103 | 66 | 81 | 2.0 | 8.0 | 0.00 | 0.05 | 0.01 | 89 | 1019.3 |
| 20260831121104 | 66 | 74 | 1.0 | 7.0 | 0.00 | 0.05 | 0.01 | 91 | 1019.1 |
| 20260831120103 | 66 | 87 | 2.0 | 8.0 | 0.00 | 0.05 | 0.01 | 93 | 1019.1 |
| 20260831115104 | 66 | 67 | 1.0 | 3.0 | 0.00 | 0.05 | 0.01 | 95 | 1019.0 |
| 20260831114103 | 64 | 56 | 1.0 | 3.0 | 0.00 | 0.05 | 0.01 | 96 | 1019.0 |
| 20260831113104 | 64 | 5 | 0.0 | 1.0 | 0.00 | 0.05 | 0.01 | 97 | 1018.9 |
| 20260831112125 | 63 | 5 | 0.0 | 1.0 | 0.00 | 0.05 | 0.01 | 97 | 1018.8 |
| 20260831111124 | 62 | 5 | 0.0 | 2.0 | 0.00 | 0.05 | 0.01 | 97 | 1018.7 |
| 20260831110104 | 61 | 5 | 1.0 | 2.0 | 0.00 | 0.05 | 0.01 | 96 | 1018.6 |
| 20260831105103 | 61 | 5 | 0.0 | 3.0 | 0.00 | 0.05 | 0.01 | 96 | 1018.5 |